Weather reports worldwide

Advertisment
Bastia, France (7790): temperature & dewpoint: 09.12.2018 07:00:00 - 15.12.2018 07:00:00 (CET)Bastia, France (7790): temperature 5cm: 09.12.2018 07:00:00 - 15.12.2018 07:00:00 (CET)Bastia, France (7790): temperature -20cm & temperature -100cm: 09.12.2018 07:00:00 - 15.12.2018 07:00:00 (CET)Bastia, France (7790): wind speed & gusts: 09.12.2018 07:00:00 - 15.12.2018 07:00:00 (CET)Bastia, France (7790): wind direction: 09.12.2018 07:00:00 - 15.12.2018 07:00:00 (CET)Bastia, France (7790): reduced air pressure: 09.12.2018 07:00:00 - 15.12.2018 07:00:00 (CET)Bastia, France (7790): visibility: 09.12.2018 07:00:00 - 15.12.2018 07:00:00 (CET)Bastia, France (7790): sunshine duration: 09.12.2018 07:00:00 - 15.12.2018 07:00:00 (CET)Bastia, France (7790): precipitation: 09.12.2018 07:00:00 - 15.12.2018 07:00:00 (CET)
Date & Time tt [°C] td [°C] tt 5cm [°C] tt -20cm [°C] tt -100cm [°C] ff [km/h] ff [kn] fx [km/h] fx [kn] dd ppp [hPa] vv [km] sd [min] rr [mm]
15.12.2018 07:00:00 - - - - - - - - - - - - - -
15.12.2018 06:00:00 2,4 1,1 0,3 11,6 14,5 9 5 13 7 SW 1016,8 20 0 0,0
15.12.2018 05:00:00 2,3 1,1 0,5 11,6 14,5 8 4 11 6 SW 1016,5 20 0 0,0
15.12.2018 04:00:00 3,2 1,2 1,6 11,7 14,5 8 4 16 8 SW 1016,3 20 0 0,0
15.12.2018 03:00:00 6,3 2,2 2,3 11,7 14,5 10 6 16 8 WNW 1015,9 20 0 0,0
15.12.2018 02:00:00 5,3 3,0 3,9 11,7 14,5 8 4 11 6 W 1015,4 20 0 0,0
15.12.2018 01:00:00 5,4 2,9 4,0 11,7 14,5 7 4 10 6 SW 1015,2 20 0 0,0
15.12.2018 00:00:00 5,2 2,9 2,8 11,8 14,5 6 4 9 5 SW 1015,2 20 0 0,0
14.12.2018 23:00:00 5,1 2,4 1,1 11,8 14,5 5 3 10 6 SW 1014,8 20 0 0,0
14.12.2018 22:00:00 5,3 1,9 1,7 11,8 14,5 8 5 15 8 SW 1014,7 20 0 0,0
14.12.2018 21:00:00 5,7 1,4 2,3 11,8 14,5 10 6 17 9 WSW 1014,5 20 0 0,0
14.12.2018 20:00:00 6,4 1,5 2,7 11,9 14,5 10 5 15 8 W 1014,4 20 0 0,0
14.12.2018 19:00:00 7,0 1,7 3,9 11,8 14,5 10 5 16 9 W 1013,8 20 0 0,0
14.12.2018 18:00:00 8,0 1,8 5,3 11,9 14,6 11 6 19 10 W 1013,2 20 0 0,0
14.12.2018 17:00:00 8,2 1,6 6,3 11,9 14,6 13 7 36 20 WNW 1012,8 20 0 0,0
14.12.2018 16:00:00 9,1 3,1 8,3 11,8 14,6 22 12 39 21 NNW 1012,3 54 0 0,0
14.12.2018 15:00:00 9,6 4,0 9,1 11,8 14,6 22 12 40 22 NNW 1011,8 58 0 0,0
14.12.2018 14:00:00 9,6 5,0 9,2 11,9 14,6 29 15 41 22 NNW 1011,4 52 0 0,0
14.12.2018 13:00:00 9,5 4,9 9,2 11,9 14,6 22 12 36 20 N 1011,5 56 0 0,0
14.12.2018 12:00:00 9,8 5,2 9,1 11,9 14,6 21 11 37 20 N 1011,5 57 0 0,0
14.12.2018 11:00:00 9,8 6,0 8,6 11,9 14,6 22 12 36 19 N 1011,4 54 0 0,0
14.12.2018 10:00:00 9,2 5,9 8,1 11,9 14,6 22 12 32 18 N 1011,1 20 0 0,0
14.12.2018 09:00:00 9,0 6,1 7,5 11,9 14,6 16 9 29 16 N 1010,6 20 0 0,0
14.12.2018 08:00:00 8,3 6,3 7,1 11,9 14,6 13 7 29 16 WNW 1010,0 20 0 0,0
14.12.2018 07:00:00 7,9 6,2 7,0 11,9 14,6 16 9 27 15 WNW 1009,8 20 0 0,6
14.12.2018 06:00:00 7,9 6,2 7,1 11,9 14,6 14 7 27 15 WNW 1009,6 20 0 0,6
14.12.2018 05:00:00 8,1 5,9 7,1 11,9 14,7 13 7 23 12 WNW 1009,5 20 0 0,0
14.12.2018 04:00:00 8,2 6,0 7,2 11,9 14,7 13 7 22 12 WNW 1009,8 20 0 0,2
14.12.2018 03:00:00 8,3 5,8 7,3 11,9 14,7 13 7 20 11 NW 1010,2 20 0 0,0
14.12.2018 02:00:00 8,1 6,6 7,3 11,9 14,7 8 4 15 8 WNW 1010,2 20 0 0,4
14.12.2018 01:00:00 8,5 5,6 7,5 12,0 14,7 10 5 23 12 N 1010,4 20 0 1,0
14.12.2018 00:00:00 8,3 6,6 7,5 12,0 14,7 6 3 19 11 NNW 1010,4 20 0 0,8
13.12.2018 23:00:00 8,4 6,9 7,7 12,0 14,7 8 4 13 7 WNW 1010,3 20 0 0,4
13.12.2018 22:00:00 8,4 7,6 7,9 12,0 14,7 6 4 10 5 W 1010,4 15 0 1,2
13.12.2018 21:00:00 8,3 7,5 7,8 12,0 14,7 7 4 11 6 WSW 1010,5 5 0 2,2
13.12.2018 20:00:00 8,2 7,1 7,8 12,0 14,8 7 4 14 8 W 1010,3 10 0 3,0
13.12.2018 19:00:00 8,3 7,2 7,7 12,0 14,7 11 6 16 9 WNW 1010,3 6 0 1,8
13.12.2018 18:00:00 8,1 7,0 7,7 12,0 14,7 8 4 17 9 W 1010,3 13 0 1,5
13.12.2018 17:00:00 8,2 7,0 7,8 12,0 14,7 9 5 16 8 WNW 1010,5 7 0 2,2
13.12.2018 16:00:00 8,5 7,4 8,2 12,0 14,8 10 5 16 8 WNW 1010,6 11 0 1,4
13.12.2018 15:00:00 8,9 7,7 8,6 12,0 14,7 9 5 13 7 NW 1010,4 9 0 1,2
13.12.2018 14:00:00 9,3 7,4 8,7 12,0 14,7 8 5 15 8 WNW 1010,5 40 0 0,0
13.12.2018 13:00:00 9,4 7,2 9,3 12,0 14,8 7 4 16 9 WSW 1011,1 60 0 0,0
13.12.2018 12:00:00 9,2 7,5 9,3 12,0 14,7 9 5 18 10 WNW 1011,7 37 0 0,0
13.12.2018 11:00:00 8,8 7,6 8,1 12,0 14,8 11 6 16 9 NW 1012,4 7 0 0,4
13.12.2018 10:00:00 8,2 7,1 8,1 12,0 14,8 9 5 17 9 WNW 1012,9 15 0 0,7
13.12.2018 09:00:00 8,4 7,5 7,8 12,0 14,8 8 5 20 11 NW 1013,1 9 0 1,6
13.12.2018 08:00:00 8,3 7,4 7,7 12,0 14,8 13 7 27 14 NNW 1012,9 11 0 1,2
13.12.2018 07:00:00 8,2 7,1 7,7 12,0 14,8 10 5 25 14 W 1012,6 14 0 8,3
13.12.2018 06:00:00 9,2 7,8 8,5 12,0 14,8 5 3 24 13 NE 1012,5 11 0 2,6
13.12.2018 05:00:00 9,7 8,1 8,5 12,0 14,8 7 4 14 8 NW 1012,7 20 0 0,0
13.12.2018 04:00:00 9,7 7,8 8,7 12,0 14,8 8 4 16 9 WSW 1013,0 20 0 0,0
13.12.2018 03:00:00 10,3 7,5 8,7 12,0 14,8 8 4 26 14 SSW 1013,5 20 0 0,2
13.12.2018 02:00:00 10,3 7,2 8,8 12,0 14,8 13 7 25 13 E 1014,1 10 0 0,8
13.12.2018 01:00:00 10,4 8,0 9,0 12,0 14,9 16 9 35 19 ESE 1014,3 20 0 0,0
13.12.2018 00:00:00 10,1 8,4 9,0 12,0 14,9 20 11 34 18 E 1015,1 20 0 0,0
12.12.2018 23:00:00 9,8 8,6 8,3 11,9 14,8 6 4 13 7 W 1015,5 20 0 0,0
12.12.2018 22:00:00 9,5 8,3 8,3 11,9 14,8 6 3 9 5 NW 1015,5 20 0 0,0
12.12.2018 21:00:00 9,8 8,4 8,6 11,9 14,9 5 3 18 10 SSW 1015,8 11 0 0,6
12.12.2018 20:00:00 9,9 8,2 8,6 11,9 14,9 3 2 9 5 SW 1016,2 20 0 0,0
12.12.2018 19:00:00 9,9 8,2 8,4 11,9 14,9 5 3 11 6 WSW 1016,3 20 0 0,0
12.12.2018 18:00:00 9,9 8,2 8,0 11,9 14,9 3 2 21 11 W 1016,2 55 0 0,0
12.12.2018 17:00:00 10,0 7,9 9,1 11,8 14,9 14 8 27 15 E 1016,6 53 0 0,0
12.12.2018 16:00:00 10,6 8,2 9,2 11,8 14,9 14 8 24 13 ENE 1016,9 59 8 0,4
12.12.2018 15:00:00 10,5 7,6 9,4 11,8 14,9 14 7 25 14 ESE 1016,7 4,3 0 1,6
12.12.2018 14:00:00 11,5 7,2 10,7 11,8 14,9 12 6 31 17 E 1016,9 56 0 0,0
12.12.2018 13:00:00 11,5 7,6 11,9 11,8 14,9 22 12 38 20 E 1017,4 49 0 0,0
12.12.2018 12:00:00 13,0 7,0 14,0 11,9 15,0 4 2 16 8 SE 1017,9 20 11 0,0
12.12.2018 11:00:00 11,6 3,9 11,9 11,9 14,9 5 3 11 6 SSW 1018,3 35 18 0,0
12.12.2018 10:00:00 10,3 2,1 8,4 11,9 15,0 7 4 25 13 WSW 1018,4 34 30 0,0
12.12.2018 09:00:00 9,1 1,3 5,8 12,0 15,0 18 10 33 18 SW 1017,9 60 53 0,0
12.12.2018 08:00:00 7,6 1,0 4,9 12,0 15,0 19 11 29 16 SW 1017,7 60 0 0,0
12.12.2018 07:00:00 7,5 1,1 4,9 12,1 15,0 16 8 29 15 SW 1017,6 20 0 0,0
12.12.2018 06:00:00 7,1 0,7 4,7 12,2 15,0 14 8 28 15 SW 1017,4 20 0 0,0
12.12.2018 05:00:00 7,6 1,0 4,7 12,2 15,0 19 11 27 15 SW 1017,6 20 0 0,0
12.12.2018 04:00:00 7,2 0,6 4,8 12,3 15,0 17 9 24 13 SW 1017,9 20 0 0,0
12.12.2018 03:00:00 7,6 1,0 3,7 12,3 15,0 16 9 26 14 SW 1018,1 20 0 0,0
12.12.2018 02:00:00 6,7 1,0 1,3 12,3 15,0 11 6 19 10 SW 1018,0 20 0 0,0
12.12.2018 01:00:00 5,3 0,8 0,5 12,4 15,0 9 5 14 8 SW 1018,4 20 0 0,0
12.12.2018 00:00:00 5,6 0,8 0,4 12,4 15,0 8 4 13 7 SW 1018,5 20 0 0,0
11.12.2018 23:00:00 5,3 0,7 0,3 12,4 15,0 8 4 13 7 SW 1018,6 20 0 0,0
11.12.2018 22:00:00 5,6 0,6 1,4 12,4 15,0 9 5 14 7 SW 1018,6 20 0 0,0
11.12.2018 21:00:00 4,9 0,8 1,3 12,4 15,0 9 5 12 6 SW 1018,4 20 0 0,0
11.12.2018 20:00:00 5,2 1,5 1,3 12,4 15,0 8 4 12 6 SW 1018,2 20 0 0,0
11.12.2018 19:00:00 6,3 2,0 2,2 12,4 15,0 9 5 12 6 SW 1018,2 20 0 0,0
11.12.2018 18:00:00 8,1 2,7 2,8 12,4 15,1 8 5 11 6 SW 1018,0 20 0 0,0
11.12.2018 17:00:00 9,6 3,1 5,3 12,4 15,0 8 4 11 6 WSW 1017,8 13 4 0,0
11.12.2018 16:00:00 12,5 1,2 9,1 12,3 15,1 9 5 18 10 NNE 1017,6 60 45 0,0
11.12.2018 15:00:00 14,7 2,2 17,1 12,3 15,0 12 7 22 12 NNE 1017,4 48 60 0,0
11.12.2018 14:00:00 15,3 1,4 20,0 12,3 15,0 11 6 19 11 NNE 1017,5 60 60 0,0
11.12.2018 13:00:00 15,4 1,9 19,6 12,3 15,0 13 7 19 11 NNE 1017,9 50 60 0,0
11.12.2018 12:00:00 16,1 4,2 18,7 12,4 15,1 4 2 11 6 S 1018,1 52 60 0,0
11.12.2018 11:00:00 13,3 3,4 14,5 12,4 15,1 9 5 16 9 SSW 1018,7 50 60 0,0
11.12.2018 10:00:00 11,6 1,5 8,1 12,4 15,1 11 6 22 12 SSW 1018,8 50 60 0,0
11.12.2018 09:00:00 9,4 0,3 5,0 12,5 15,1 15 8 25 13 SW 1018,5 60 53 0,0
11.12.2018 08:00:00 7,2 -0,3 4,4 12,5 15,1 14 7 21 12 SW 1018,0 60 0 0,0
11.12.2018 07:00:00 7,3 0,0 4,9 12,6 15,1 14 8 26 14 SW 1017,7 20 0 0,0
11.12.2018 06:00:00 7,8 0,3 5,2 12,6 15,1 17 9 26 14 SW 1017,6 20 0 0,0
11.12.2018 05:00:00 8,0 0,5 5,4 12,6 15,1 16 8 26 14 SW 1017,5 20 0 0,0
11.12.2018 04:00:00 8,1 0,8 5,8 12,7 15,1 17 9 25 14 SW 1017,5 20 0 0,0
11.12.2018 03:00:00 8,3 1,2 5,7 12,7 15,1 16 8 24 13 SSW 1017,8 20 0 0,0
11.12.2018 02:00:00 9,2 1,1 5,0 12,7 15,1 16 9 24 13 SW 1018,0 20 0 0,0
11.12.2018 01:00:00 10,4 1,2 5,7 12,8 15,1 13 7 26 14 WSW 1018,4 20 0 0,0
11.12.2018 00:00:00 9,2 2,1 3,4 12,8 15,1 10 5 19 10 SW 1018,7 20 0 0,0
10.12.2018 23:00:00 11,1 2,1 5,2 12,8 15,1 11 6 32 17 WSW 1019,1 20 0 0,0
10.12.2018 22:00:00 9,7 2,3 4,1 12,8 15,1 9 5 16 8 WSW 1019,2 20 0 0,0
10.12.2018 21:00:00 9,0 1,6 2,5 12,8 15,1 9 5 16 9 SSW 1019,2 20 0 0,0
10.12.2018 20:00:00 10,1 1,5 3,8 12,8 15,1 5 3 22 12 WSW 1019,0 20 0 0,0
10.12.2018 19:00:00 12,5 0,9 7,3 12,8 15,2 10 6 23 13 WSW 1018,6 20 0 0,0
10.12.2018 18:00:00 13,2 1,2 10,0 12,8 15,1 16 9 32 18 W 1018,7 60 0 0,0
10.12.2018 17:00:00 13,5 1,2 9,7 12,7 15,1 14 7 34 18 W 1018,2 60 19 0,0
10.12.2018 16:00:00 15,2 1,0 13,9 12,7 15,2 22 12 44 24 WNW 1017,9 43 60 0,0
10.12.2018 15:00:00 16,0 1,3 17,1 12,7 15,2 31 17 52 28 WNW 1017,6 29 60 0,0
10.12.2018 14:00:00 16,4 0,9 19,2 12,7 15,1 27 14 53 29 NW 1017,5 33 60 0,0
10.12.2018 13:00:00 16,7 1,9 19,8 12,7 15,2 27 14 47 26 NW 1017,4 37 60 0,0
10.12.2018 12:00:00 16,8 3,8 18,6 12,7 15,2 30 16 54 29 WNW 1017,4 46 60 0,0
10.12.2018 11:00:00 16,7 3,7 17,6 12,7 15,2 21 12 55 30 NW 1017,2 57 60 0,0
10.12.2018 10:00:00 16,3 3,4 11,4 12,8 15,2 26 14 51 28 W 1016,9 60 60 0,0
10.12.2018 09:00:00 13,0 3,9 8,2 12,8 15,2 12 6 23 12 W 1016,4 44 54 0,0
10.12.2018 08:00:00 11,0 4,4 7,2 12,8 15,2 15 8 24 13 WSW 1015,8 48 0 0,0
10.12.2018 07:00:00 11,2 3,2 8,6 12,8 15,2 16 9 29 16 W 1015,1 59 0 0,0
10.12.2018 06:00:00 12,3 1,9 8,4 12,9 15,2 14 7 31 17 WNW 1014,7 60 0 0,0
10.12.2018 05:00:00 14,0 -0,5 7,0 12,8 15,2 19 10 34 18 SW 1013,8 60 0 0,0
10.12.2018 04:00:00 16,7 -4,0 12,1 12,9 15,2 17 9 56 30 W 1013,2 60 0 0,0
10.12.2018 03:00:00 16,7 -2,9 11,9 12,9 15,2 22 12 58 31 W 1012,1 60 0 0,0
10.12.2018 02:00:00 16,5 -2,1 10,3 12,9 15,2 33 18 64 34 W 1012,1 60 0 0,0
10.12.2018 01:00:00 14,1 0,7 8,7 12,9 15,2 16 9 36 20 NE 1012,5 60 0 0,0
10.12.2018 00:00:00 15,8 -0,5 10,3 12,9 15,2 14 8 48 26 ESE 1012,5 60 0 0,0
09.12.2018 23:00:00 16,3 0,0 11,2 12,9 15,2 17 9 69 37 SW 1011,7 60 0 0,0
09.12.2018 22:00:00 15,1 1,9 12,5 12,9 15,2 23 12 101 55 W 1012,1 60 0 0,0
09.12.2018 21:00:00 15,4 2,5 13,8 12,9 15,2 54 29 104 56 W 1011,9 60 0 0,0
09.12.2018 20:00:00 15,9 1,9 14,0 12,9 15,2 57 31 93 50 W 1011,2 60 0 0,0
09.12.2018 19:00:00 16,3 1,9 14,7 12,8 15,2 56 30 96 52 W 1011,8 60 0 0,0
09.12.2018 18:00:00 17,1 3,0 15,3 12,8 15,2 53 28 108 58 W 1011,3 60 0 0,0
09.12.2018 17:00:00 17,8 2,1 15,8 12,8 15,2 58 31 113 61 W 1010,8 60 15 0,0
09.12.2018 16:00:00 18,4 0,5 16,7 12,8 15,3 59 32 113 61 W 1010,3 17 58 0,0
09.12.2018 15:00:00 18,7 2,5 18,8 12,7 15,2 48 26 96 52 WNW 1009,9 18 60 0,0
09.12.2018 14:00:00 19,9 3,1 20,9 12,7 15,3 25 13 75 40 W 1009,9 21 60 0,0
09.12.2018 13:00:00 21,4 1,6 21,9 12,7 15,2 24 13 72 39 W 1009,6 22 60 0,0
09.12.2018 12:00:00 21,9 -0,8 22,7 12,8 15,3 42 23 86 47 WNW 1008,7 25 60 0,0
09.12.2018 11:00:00 22,4 0,2 20,2 12,8 15,3 37 20 89 48 W 1009,9 29 60 0,0
09.12.2018 10:00:00 21,5 -1,8 12,4 12,9 15,3 31 17 81 44 W 1010,8 36 60 0,0
09.12.2018 09:00:00 13,7 7,9 4,4 12,9 15,3 13 7 34 18 SSE 1011,9 19 27 0,0
09.12.2018 08:00:00 8,1 4,5 2,7 13,0 15,3 8 5 15 8 W 1013,2 60 0 0,0
09.12.2018 07:00:00 7,5 2,6 4,7 13,0 15,3 13 7 20 11 SSW 1013,6 20 0 0,0

tt = temperature
td = dewpoint
tt 5cm = temperature 5cm
tt -20cm = temperature -20cm
tt -100cm = temperature -100cm
ff = wind speed
fx = gusts
dd = wind direction
ppp = reduced air pressure
vv = visibility
sd = sunshine duration
rr = precipitation

Next stations